Showing default

FLOCK 1C 10, 40023

Orbit data source: Space-Track

FLOCK 1C 10, 40023 is a payload satellite owned by Planet Labs (US) in SSO that was launched on Thu, 19 Jun 2014 UTC via a DNEPR launch vehicle from the Orenburg, Russia (OREN). Payloads include a variety of satellites, spacecraft, and rockets equipped with specific instruments for various scientific and technological missions. These include communications satellites like Starlink; space stations such as the ISS; scientific satellites like the Hubble; Earth observation satellites from companies like Planet Labs, Umbra, and HawkEye 360; GPS; miniature CubeSats for education and research; and military/defense satellites.

Loading next visibility...
FLOCK 1C 10 details
Identifier
40023, 2014-033P
Orbit
SSO
Last TLE update10 hours ago
Origin
Flag of USPlanet Labs (US)
ManufacturerPlanet Labs
MissionNon-operational Commercial Imaging
Bus & MotorCUBESAT 3U, Unknown motor
Mass4.25 kg wet, 4.25 kg dry
Launch date (UTC)
2014-06-19 (11 years ago)
Launch vehicle
DNEPR
Launch site
Orenburg, Russia (OREN)
Object type
Payload
Rocket body
Debris
Shape & HBRBox + 2 Pan, 0.3 m
Radar Cross Section0.108 m², Small (<0.1 m²)

Expand to show TLE details & history

TLE from 10 hours ago
0 FLOCK 1C 10
1 40023U 14033P   24361.53413561  .00103160  00000-0  33092-2 0  9994
2 40023  98.0822 352.4039 0007856 141.5736 218.6064 15.31882601573039
Epoch: 2024-12-26T12:49Z
Definitive object data (Epoch: 2024-12-26T12:49:09.316Z)
Latitude-0.00008°
Longitude64.60294°
Altitude477.489 km
Speed7.625 km/s
True Right ascension23h 29m 36s
True Declination0° 00' 00"
Sunlit
Object was in daylight at TLE epoch
Visualization TLE readout
Latitude2.86288°
Longitude-114.53014°
Altitude468.387 km
Speed7.635 km/s
Apparent Right ascension11h 03m 51s
Apparent Declination-17° 49' 30"
Sunlit
Object is in daylight
Visualization observer readout
Local Sidereal Time22:22:56
Azimuth335.233° NNW
Elevation-66.204°
Doppler factor1
Orbital elements
Apogee altitude472.554 km
Perigee altitude461.798 km
Semi-major axis6,845.313 km
Eccentricity0.0007856
Inclination98.0822°
RAAN352.4039°
Arg. of periapsis141.5736°
True anomaly218.55027°
Mean anomaly218.6064°
Eccentric anomaly218.57833°
Mean motion3.83224 °/min
BSTAR0.0033092
Orbital period93.94 mins
Loading maneuver chart data...
Loading historical data...
Loading historical data...
Loading historical data...
Loading historical data...
Loading historical data...
Loading historical data...
Loading historical data...

FLOCK 1C 10 Visibility forecast

Observer location: undefined°, undefined

Span
Click to sort rows by Start time (UTC) header in descending order
Start Az.
Max El. time (UTC)
Max El. Az.
Max El.
End time (UTC)
End Az.
6 mins2024-12-26 23:54:41.686Z183.061° SSW2024-12-26 23:57:41.686Z244.051° WSW37.144°2024-12-27 00:00:41.686Z333.307° NNW
4 mins2024-12-27 12:54:41.686Z342.247° N2024-12-27 12:55:41.686Z311.157° NW33.567°2024-12-27 12:58:41.686Z217.997° SW
|